Regional Weather Roundup
Issued by NWS Cleveland, OH

Home | Current Version | Previous Version | Graphics & Text | Print | Product List | Glossary On
Versions: 1 2 3 4 5 6 7 8 9 10 11 12 13 14 15 16 17 18 19 20 21 22 23 24 25 26 27 28 29 30 31 32 33 34 35 36 37 38 39 40 41 42 43 44 45 46 47 48 49 50
000
ASUS41 KCLE 200310
RWRCLE
OHIO REGIONAL WEATHER ROUNDUP
NATIONAL WEATHER SERVICE WILMINGTON, OH
1100 PM EDT FRI SEP 19 2014

NOTE: "FAIR" INDICATES FEW OR NO CLOUDS BELOW 12,000 FEET WITH NO
SIGNIFICANT WEATHER AND/OR OBSTRUCTIONS TO VISIBILITY.

OHZ001>008-015>018-024>027-034-035-043-044-200400-
   NORTHWEST OHIO

CITY           SKY/WX    TMP DP  RH WIND       PRES   REMARKS
DEFIANCE       CLEAR     54  47  77 S3        30.08S
FINDLAY        CLEAR     54  47  77 S3        30.08R
TOLEDO EXPRESS CLEAR     54  52  93 CALM      30.07F
TOLEDO METCALF CLEAR     54  49  83 SE3       30.08F
LIMA           CLEAR     58  47  66 S5        30.09R
$$

OHZ009>014-019>023-028>033-038-089-200400-
   NORTHEAST OHIO

CITY           SKY/WX    TMP DP  RH WIND       PRES   REMARKS
CLE-HOPKINS    PTCLDY    55  50  83 CALM      30.11S
CLE-LAKEFRONT  PTCLDY    62  52  69 S6        30.08S
CUY CO. ARPT   MOCLDY    59  54  82 S8        30.10S
LORAIN-ELYRIA  PTCLDY    57  51  80 CALM      30.10S
ASHTABULA      CLEAR     59  53  80 S6        30.11S
AKRON-CANTON   CLEAR     62  54  74 S9        30.11S
WOOSTER        CLEAR     51  48  89 CALM      30.11S
MANSFIELD      CLEAR     55  49  80 S3        30.11S
YOUNGSTOWN     PTCLDY    61  55  81 SE9       30.11F
$$

OHZ042-051>053-060>062-070>072-077>081-200400-
  SOUTHWEST OHIO

CITY           SKY/WX    TMP DP  RH WIND       PRES   REMARKS
CINC-COVINGTON PTCLDY    63  51  65 CALM      30.09S
CINC-LUNKEN    CLEAR     56  54  93 CALM      30.10R
HAMILTON       CLEAR     53  51  93 CALM      30.10S
DAYTON         PTCLDY    61  49  64 SE7       30.11R
WRIGHT-PAT AFB CLEAR     56  51  85 CALM      30.10S
DAYTON GENERAL CLEAR     62  50  64 SE3       30.09S
WILMINGTON     CLEAR     57  50  77 CALM      30.10S
$$

OHZ036-037-039>041-045>050-054>059-063>069-073>076-082>088-200400-
  CENTRAL AND SOUTHEAST OHIO

CITY           SKY/WX    TMP DP  RH WIND       PRES   REMARKS
COLUMBUS       PTCLDY    65  52  62 SE6       30.09S
OSU AIRPORT    CLEAR     60  50  69 SE3       30.10R
BOLTON FIELD   CLEAR     59  52  77 CALM      30.10S
RICKENBACK AFB CLEAR     58  52  80 CALM      30.09S
NEWARK         CLEAR     53  51  93 CALM      30.10S
MARION         CLEAR     55  48  77 CALM      30.09F
LANCASTER      CLEAR     53  51  93 CALM      30.11R
ZANESVILLE     MOCLDY    59  55  87 SE5       30.12R
NEW PHILLY     CLEAR     55  55 100 SE3       30.12S FOG
$$


USA.gov is the U.S. government's official web portal to all federal, state and local government web resources and services.